Location: Unspecified
(0.0000°N, 0.0000°E)
Time: 03:15:36
(UTC+00:00)

Hubble Space Telescope - Pass Details

Date: 14 November 2019
Orbit: 536 x 540 km, 28.5° (Epoch: 10 November)

Event Time Altitude Azimuth Distance (km) Brightness Sun altitude
Exits shadow 03:40:09 16° 53° (NE) 1,444 3.2 -29.4°
Drops below altitude 10° 03:41:41 10° 73° (ENE) 1,780 4.0 -29.0°
Sets 03:44:29 0° 92° (E) 2,672 5.4 -28.3°
